Home > Time Zones > World Clock > Weather > Mali > Bamako > Past weeks

Flag for Mali Weather past 2 weeks in Bamako, Mali

Now
79 °F

Thunderstorms. Partly cloudy.


Feels Like: 83 °F
Forecast: N/A
Wind: No wind

Location: Bamako / Senou

Current Time: Jul 23, 2014 at 10:29:03 PM

Latest Report: Jul 23, 2014 at 9:30 PM


Visibility: N/A

Pressure: 30.04 "Hg

Humidity: 94%

Dew point: 77 °F

Location of BamakoLocation

Historic Weather in Bamako — Graph

°F

Bamako temperature yesterday

Maximum temperature yesterday: 88 °F (at 12:30 PM)
Minimum temperature yesterday: 73 °F (at 6:00 AM)
Average temperature yesterday: 78 °F

Past Weeks' High & Low Weather Summary

 TemperatureHumidityPressure
High95 °F (Jul 11, 3:00 PM)100% (Jul 8, 9:00 PM)30.09 "Hg (Jul 8, 9:00 PM)
Low70 °F (Jul 17, 8:30 PM)41% (Jul 10, 4:00 PM)29.74 "Hg (Jul 22, 3:00 PM)
Average82 °F78%30.00 "Hg
* Reported Jul 8 9:00 PM — Jul 23 9:30 PM, Bamako, Weather by CustomWeather, © 2014

Note: Actual official high and low records may vary slightly from our data, if they occured in-between our weather recording intervals... More about our weather records

Advertising

Bamako weather history for previous 24 hours

 ConditionsComfort  
Time TempWeatherWind HumidityBarometerVisibility
9:30 PM
Jul 23
79 °FThunderstorms. Partly cloudy.No wind94%30.04 "HgN/A
9:00 PM79 °FThunderstorms. Passing clouds.1 mph89%30.04 "HgN/A
8:30 PM79 °FThunderstorms. Passing clouds.No wind84%30.01 "HgN/A
8:00 PM79 °FThunderstorms. Passing clouds.No wind89%30.01 "HgN/A
7:30 PM79 °FThunderstorms. Passing clouds.1 mph89%30.01 "HgN/A
7:00 PM79 °FThunderstorms. Passing clouds.No wind84%30.01 "HgN/A
6:30 PM81 °FThunderstorms. Scattered clouds.2 mph84%30.01 "HgN/A
6:00 PM82 °FThunderstorms. Scattered clouds.5 mph66%29.98 "HgN/A
5:30 PM82 °FThunderstorms. Scattered clouds.10 mph66%29.95 "HgN/A
5:00 PM84 °FThunderstorms. Broken clouds.12 mph62%29.98 "HgN/A
4:30 PM88 °FThunderstorms. Broken clouds.15 mph59%29.98 "HgN/A
4:00 PM88 °FThunderstorms. Broken clouds.14 mph66%29.98 "HgN/A
3:30 PM91 °FThunderstorms. Broken clouds.6 mph46%29.98 "HgN/A
3:00 PM91 °FBroken clouds.7 mph49%29.98 "HgN/A
2:30 PM90 °FBroken clouds.7 mph55%30.01 "HgN/A
2:00 PM90 °FBroken clouds.7 mph52%30.01 "HgN/A
1:30 PM90 °FBroken clouds.7 mph52%30.04 "HgN/A
1:00 PM90 °FBroken clouds.6 mph55%30.04 "HgN/A
12:30 PM88 °FBroken clouds.8 mph59%30.04 "HgN/A
12:00 PM88 °FPartly sunny.7 mph66%30.07 "HgN/A
11:30 AM86 °FBroken clouds.9 mph70%30.07 "HgN/A
11:00 AM84 °FScattered clouds.8 mph74%30.07 "HgN/A
10:30 AM82 °FScattered clouds.8 mph79%30.07 "HgN/A
10:00 AM82 °FScattered clouds.9 mph79%30.07 "HgN/A
9:30 AM81 °FBroken clouds.9 mph84%30.09 "HgN/A
9:00 AM79 °FBroken clouds.8 mph89%30.09 "HgN/A
5:00 AM73 °FClear.2 mph100%30.04 "Hg10 mi
4:30 AM73 °FClear.1 mph100%30.01 "Hg10 mi
4:00 AM73 °FClear.2 mph100%30.01 "Hg10 mi
3:30 AM73 °FClear.2 mph100%30.04 "Hg10 mi
3:00 AM73 °FClear.5 mph100%30.01 "Hg10 mi
2:30 AM73 °FClear.3 mph100%30.01 "Hg10 mi
2:00 AM73 °FClear.No wind100%30.01 "Hg10 mi
1:30 AM73 °FClear.2 mph100%30.01 "Hg10 mi
1:00 AM73 °FClear.3 mph100%30.04 "Hg10 mi
12:30 AM73 °FClear.6 mph100%30.01 "Hg10 mi
12:00 AM73 °FClear.7 mph100%30.04 "Hg10 mi
11:00 PM
Jul 22
75 °FClear.5 mph100%30.01 "Hg10 mi
Weather by CustomWeather, © 2014

See weather overviewHow to use our weather pages